Location: Street
(51.1247°N, 2.7429°W)
Time: 17:06:07
(UTC+00:00)

N. Korean satellite - Pass Details

Date: 29 October 2020
Orbit: 453 x 503 km, 97.2° (Epoch: 04 December)

Event Time Altitude Azimuth Distance (km) Brightness Sun altitude
Rises 04:30:50 0° 34° (NNE) 2,483 10.8 -23.7°
Reaches altitude 10° 04:34:50 10° 81° (E) 1,596 10.3 -23.0°
Maximum altitude 04:35:13 10° 87° (E) 1,586 10.3 -23.0°
Drops below altitude 10° 04:35:36 10° 94° (E) 1,595 10.3 -22.9°
Sets 04:39:33 0° 141° (SE) 2,460 10.6 -22.3°
